Location: Unspecified
(0.0000°N, 0.0000°E)
Time: 20:03:57
(UTC+00:00)

Tiangong 1 - Pass Details

Date: 09 January 2018
Orbit: 261 x 286 km, 42.8° (Epoch: 22 January)

Event Time Altitude Azimuth Distance (km) Brightness Sun altitude
Exits shadow 05:31:05 11° 272° (W) 1,007 2.6 -8.3°
Maximum altitude 05:32:44 19° 225° (SW) 715 2.2 -7.9°
Drops below altitude 10° 05:34:35 10° 174° (S) 1,078 3.7 -7.5°
Sets 05:36:48 0° 155° (SSE) 1,900 5.4 -7.0°
